This demonstration page uses our WeatherBlox Daily Observations layout. Learn more.

Left ArrowRight Arrow

Hourly Observations for June 28, 2016

Temp ( °F °C ) Dew Point ( °F °C ) Humidity (%) Winds ( mph kmh ) Pressure ( in mb ) Visibility ( mi km ) Precip ( " mm )
12:54 am 00:54 Clear 71 21.7 61 16.1 71 71 NE 7 11 30.17 1022 10 16.0934 0 0
1:54 am 01:54 Clear 71 21.7 61 16.1 71 71 NNE 7 11 30.16 1021 10 16.0934 0 0
2:54 am 02:54 Mostly Cloudy 72 22.2 61 16.1 68 68 NNE 5 7 30.16 1021 10 16.0934 0 0
3:54 am 03:54 Cloudy 70 21.1 61 16.1 73 73 NE 3 6 30.16 1022 10 16.0934 0 0
4:54 am 04:54 Mostly Cloudy 71 21.7 61 16.1 71 71 Calm 30.17 1022 10 16.0934 0 0
5:54 am 05:54 Mostly Clear 67 19.4 61 16.1 81 81 N 6 9 30.19 1022 10 16.0934 0 0
6:54 am 06:54 Mostly Sunny 71 21.7 60 15.6 68 68 Calm 30.19 1022 10 16.0934 0 0
7:54 am 07:54 Sunny 73 22.8 59 15 62 62 ESE 9 15 30.2 1023 10 16.0934 0 0
8:54 am 08:54 Sunny 76 24.4 59 15 56 56 ESE 7 11 30.22 1023 10 16.0934 0 0
9:54 am 09:54 Sunny 78 25.6 60 15.6 54 54 E 8 13 30.22 1023 10 16.0934 0 0
10:54 am 10:54 Sunny 80 26.7 60 15.6 51 51 SE 7 11 30.21 1023 10 16.0934 0 0
11:54 am 11:54 Sunny 83 28.3 59 15 44 44 E 9 15 30.2 1023 10 16.0934 0 0
12:54 pm 12:54 Sunny 83 28.3 57 13.9 41 41 SE 10 17 30.2 1023 10 16.0934 0 0
1:54 pm 13:54 Sunny 85 29.4 56 13.3 37 37 ESE 9 15 30.18 1022 10 16.0934 0 0
2:54 pm 14:54 Sunny 85 29.4 57 13.9 39 39 E 8 13 30.17 1022 10 16.0934 0 0
3:54 pm 15:54 Sunny 85 29.4 57 13.9 39 39 SSE 6 9 30.14 1021 10 16.0934 0 0
4:54 pm 16:54 Sunny 85 29.4 57 13.9 39 39 VRB 6 9 30.11 1020 10 16.0934 0 0
5:54 pm 17:54 Sunny 86 30 58 14.4 39 39 E 10 17 30.09 1019 10 16.0934 0 0
6:54 pm 18:54 Sunny 85 29.4 60 15.6 43 43 ESE 9 15 30.07 1018 10 16.0934 0 0
7:54 pm 19:54 Sunny 82 27.8 60 15.6 47 47 SE 10 17 30.06 1018 10 16.0934 0 0
8:54 pm 20:54 Sunny 80 26.7 61 16.1 52 52 ESE 8 13 30.06 1018 10 16.0934 0 0
9:54 pm 21:54 Clear 78 25.6 59 15 52 52 SE 12 19 30.08 1019 10 16.0934 0 0
10:54 pm 22:54 Clear 77 25 59 15 54 54 ESE 3 6 30.12 1020 10 16.0934 0 0
11:54 pm 23:54 Mostly Cloudy 76 24.4 59 15 56 56 ESE 6 9 30.1 1019 10 16.0934 0 0

Powered by AerisWeather